This is the latest recevied weather packets stored in our database for station/object DL6MAA-11. If no packets are shown the sender has not sent any weather packets the latest 10 day(s).
| Time | Temp. | Humidity | Pressure | Rain* | Wind** | Luminosity | Snow |
|---|---|---|---|---|---|---|---|
| 1778002622 | 15° C | 71% | 1004.5 hPa | 0 mm | - | 21 W/m² | - |
| 1778002327 | 15° C | 71% | 1004.5 hPa | 0 mm | - | 21 W/m² | - |
| 1778002013 | 15° C | 71% | 1004.4 hPa | 0 mm | - | 25 W/m² | - |
| 1778001716 | 15° C | 70% | 1004.4 hPa | 0 mm | - | 30 W/m² | - |
| 1778001421 | 15° C | 68% | 1004.4 hPa | 0 mm | - | 35 W/m² | - |
| 1778001124 | 15° C | 68% | 1004 hPa | 0 mm | - | 37 W/m² | - |
| 1778000825 | 15.56° C | 68% | 1004 hPa | 0 mm | - | 39 W/m² | - |
| 1778000507 | 15.56° C | 67% | 1004 hPa | 0 mm | - | 32 W/m² | - |
| 1778000217 | 15.56° C | 64% | 1004.5 hPa | 0 mm | - | 28 W/m² | - |
| 1777999923 | 15.56° C | 64% | 1004.5 hPa | 0 mm | - | 28 W/m² | - |
| 1777999626 | 15.56° C | 64% | 1004.5 hPa | 0 mm | - | 28 W/m² | - |
| 1777999310 | 16.11° C | 64% | 1004.6 hPa | 0 mm | - | 33 W/m² | - |
| 1777999021 | 16.11° C | 63% | 1004.6 hPa | 0 mm | - | 30 W/m² | - |
| 1777998712 | 16.11° C | 64% | 1004.6 hPa | 0 mm | - | 39 W/m² | - |
| 1777998413 | 16.11° C | 64% | 1004.6 hPa | 0 mm | - | 53 W/m² | - |
| 1777998126 | 16.11° C | 63% | 1004.6 hPa | 0 mm | - | 44 W/m² | - |
| 1777997825 | 16.11° C | 62% | 1004.6 hPa | 0 mm | - | 53 W/m² | - |
| 1777997511 | 16.11° C | 62% | 1004.6 hPa | 0 mm | - | 54 W/m² | - |
| 1777997216 | 16.11° C | 62% | 1004.6 hPa | 0 mm | - | 53 W/m² | - |
| 1777996923 | 16.11° C | 61% | 1004.6 hPa | 0 mm | - | 65 W/m² | - |
| 1777996625 | 16.67° C | 61% | 1004.5 hPa | 0 mm | - | 79 W/m² | - |
| 1777996322 | 16.67° C | 60% | 1004.5 hPa | 0 mm | - | 100 W/m² | - |
| 1777996014 | 17.22° C | 60% | 1004.5 hPa | 0 mm | - | 120 W/m² | - |
| 1777995708 | 17.22° C | 59% | 1004.3 hPa | 0 mm | - | 144 W/m² | - |
| 1777995422 | 17.22° C | 58% | 1004.3 hPa | 0 mm | - | 139 W/m² | - |
* Rain since midnight (hover to see other rain measurements)
** Current wind speed in m/s (hover to see current wind gust speed)